This demonstration page uses our WeatherBlox Daily Observations layout. Learn more.

Left ArrowRight Arrow

30.21309, -93.2044

Hourly Observations for March 20, 2015

Temp ( °F °C ) Dew Point ( °F °C ) Humidity (%) Winds ( mph kmh ) Pressure ( in mb ) Visibility ( mi km ) Precip ( " mm )
12:15 am 00:15 Cloudy with Fog 65 18.5 65 18.4 99 99 Calm 30.03 1017 0 0 0.00 0.00
12:35 am 00:35 Cloudy with Fog 65 18.4 65 18.2 99 99 Calm 30.03 1017 0 0 0.00 0.00
12:55 am 00:55 Cloudy with Fog 65 18.5 65 18.4 99 99 Calm 30.06 1018 0 0 0.00 0.00
1:15 am 01:15 Cloudy with Fog 65 18.6 65 18.5 99 99 Calm 30.03 1017 0 0 0.00 0.00
1:35 am 01:35 Cloudy with Fog 65 18.6 65 18.5 99 99 Calm 30.03 1017 0 0 0.00 0.00
1:55 am 01:55 Cloudy with Fog 66 18.7 66 18.7 100 100 Calm 30.03 1017 0 0 0.00 0.00
2:15 am 02:15 Cloudy with Fog 66 18.9 66 18.8 99 99 Calm 30.03 1017 0 0 0.00 0.00
2:35 am 02:35 Cloudy with Light Rain 67 19.3 67 19.3 100 100 Calm 30.03 1017 5 8 0.00 0.00
2:50 am 02:50 Cloudy with Light Rain 67 19.3 67 19.2 99 99 Calm 30.03 1017 0 0 0.00 0.00
4:00 am 04:00 Cloudy with Fog 67 19.3 67 19.3 100 100 Calm 30.03 1017 0 0 0.00 0.00
4:15 am 04:15 Cloudy with Fog 67 19.5 67 19.3 99 99 Calm 30.03 1017 1 1 0.00 0.00
4:35 am 04:35 Cloudy with Fog 67 19.3 67 19.2 99 99 Calm 30.03 1017 0 0 0.00 0.00
4:55 am 04:55 Cloudy with Fog 67 19.5 67 19.5 100 100 SSW 3 6 30.03 1017 1 1 0.00 0.00
5:15 am 05:15 Cloudy with Mist and Fog 67 19.5 67 19.5 100 100 SW 3 6 30.03 1017 1 1 0.00 0.00
6:00 am 06:00 Cloudy with Fog 66 19 66 19 100 100 Calm 30.03 1017 1 1 0.00 0.00
6:50 am 06:50 Cloudy with Fog 66 19 66 19 100 100 Calm 30.06 1018 1 1 0.00 0.00
7:50 am 07:50 Cloudy with Fog 66 19 66 19 100 100 Calm 30.09 1019 1 1 0.00 0.00
8:50 am 08:50 Cloudy with Fog 66 19 66 19 100 100 Calm 30.12 1020 1 1 0.00 0.00
9:50 am 09:50 Cloudy with Fog 68 20 68 20 100 100 Calm 30.15 1021 1 1 0.00 0.00
10:50 am 10:50 Cloudy with Mist and Fog 70 21 70 21 100 100 Calm 30.15 1021 2 3 0.00 0.00
11:50 am 11:50 Cloudy with Mist and Fog 72 22 68 20 88 88 Calm 30.15 1021 5 8 0.00 0.00
12:50 pm 12:50 Cloudy 73 23 66 19 78 78 Calm 30.12 1020 10 16 0.00 0.00
1:50 pm 13:50 Mostly Cloudy 75 24 66 19 74 74 Calm 30.12 1020 10 16 0.00 0.00
2:50 pm 14:50 Mostly Cloudy 79 26 64 18 61 61 Calm 30.06 1018 10 16 0.00 0.00
3:50 pm 15:50 Cloudy 79 26 66 19 65 65 Calm 30.06 1018 10 16 0.00 0.00
4:50 pm 16:50 Mostly Cloudy 79 26 66 19 65 65 S 7 11 30.06 1018 10 16 0.00 0.00
6:50 pm 18:50 Mostly Sunny 73 23 66 19 78 78 SSW 7 11 30.06 1018 10 16 0.00 0.00
9:50 pm 21:50 Cloudy 72 22 70 21 94 94 S 5 7 30.09 1019 10 16 0.00 0.00
10:15 pm 22:15 Partly Cloudy 71 21.5 69 20.4 93 93 S 6 9 30.09 1019 10 16 0.00 0.00
10:35 pm 22:35 Clear 71 21.4 69 20.4 94 94 S 7 11 30.09 1019 10 16 0.00 0.00
10:55 pm 22:55 Mostly Cloudy 70 21.1 69 20.4 96 96 S 6 9 30.09 1019 10 16 0.00 0.00
11:15 pm 23:15 Cloudy 70 21.3 69 20.5 95 95 S 7 11 30.09 1019 10 16 0.00 0.00
11:35 pm 23:35 Mostly Cloudy 71 21.4 69 20.5 95 95 S 3 6 30.09 1019 10 16 0.00 0.00
11:55 pm 23:55 Mostly Cloudy 69 20.8 68 20.1 96 96 Calm 30.09 1019 10 16 0.00 0.00

Powered by AerisWeather